Weather History for Monroe, MI

Change the Weather History Date:

Friday, September 13, 2013

  Actual Average Record
Temperature  
Mean Temperature 54 °F -  
Max Temperature 62 °F 75 °F 92 °F (1931)
Min Temperature 44 °F 55 °F 35 °F (1975)
Degree Days  
Heating Degree Days 11    
Growing Degree Days 4 (Base 50)    
Moisture  
Dew Point 48 °F    
Average Humidity 74    
Maximum Humidity 93    
Minimum Humidity 52    
Precipitation  
Precipitation 0.00 in - - ()
Sea Level Pressure  
Sea Level Pressure 30.04 in    
Wind  
Wind Speed 6 mph (NNW)    
Max Wind Speed 14 mph    
Max Gust Speed 23 mph    
Visibility 10 miles    
Events      
Averages and records for this station are not official NWS values.
T = Trace of Precipitation, MM = Missing Value Source: NWS Daily Summary

Daily Weather History Graph

Daily Weather History Graph

Search for Another Location

Airport:

Trip Planner

Search our weather history database for the weather conditions in past years. The results will help you decide how hot, cold, wet, or windy it might be!

Date:

Astronomy

Sep. 13, 2013 Rise Set
Actual Time 7:12 AM EDT 7:46 PM EDT
Civil Twilight 6:43 AM EDT 8:14 PM EDT
Nautical Twilight 6:10 AM EDT 8:47 PM EDT
Astronomical Twilight 5:36 AM EDT 9:21 PM EDT
Moon 3:39 PM EDT (9/13) 12:36 AM EDT (9/13)
Length of Visible Light 13h 30m
Length of Day
12h 34m
First Quarter, 61% of the Moon is Illuminated
Sep 13
First Quarter
Sep 19
Full
Sep 26
Last Quarter
Oct 4
New
Oct 11
First Quarter

Hourly Weather History & Observations

Time (EDT) Temp. Dew Point Humidity Pressure Visibility Wind Dir Wind Speed Gust Speed Precip Events Conditions
12:13 AM 59.0 °F 51.8 °F 77% 29.96 in 10.0 mi NNW 4.6 mph - N/A   Clear
12:33 AM 57.2 °F 51.8 °F 82% 29.96 in 10.0 mi NNW 4.6 mph - N/A   Clear
12:53 AM 57.2 °F 51.8 °F 82% 29.96 in 10.0 mi NW 4.6 mph - N/A   Clear
1:13 AM 57.2 °F 51.8 °F 82% 29.96 in 10.0 mi NNW 3.5 mph - N/A   Clear
1:33 AM 57.2 °F 51.8 °F 82% 29.96 in 10.0 mi NNW 6.9 mph - N/A   Clear
1:53 AM 55.4 °F 50.0 °F 82% 29.96 in 10.0 mi NW 5.8 mph - N/A   Clear
2:13 AM 55.4 °F 50.0 °F 82% 29.96 in 10.0 mi NW 5.8 mph - N/A   Clear
2:34 AM 55.4 °F 50.0 °F 82% 29.96 in 10.0 mi NW 5.8 mph - N/A   Scattered Clouds
2:54 AM 55.4 °F 50.0 °F 82% 29.96 in 10.0 mi West 4.6 mph - N/A   Overcast
3:14 AM 53.6 °F 50.0 °F 88% 29.96 in 10.0 mi WNW 4.6 mph - N/A   Mostly Cloudy
3:34 AM 55.4 °F 50.0 °F 82% 29.96 in 10.0 mi WNW 6.9 mph - N/A   Overcast
3:54 AM 55.4 °F 48.2 °F 77% 29.96 in 10.0 mi NW 4.6 mph - N/A   Mostly Cloudy
4:14 AM 53.6 °F 48.2 °F 82% 29.96 in 10.0 mi NW 4.6 mph - N/A   Scattered Clouds
4:34 AM 53.6 °F 48.2 °F 82% 29.97 in 10.0 mi WNW 6.9 mph - N/A   Mostly Cloudy
4:54 AM 53.6 °F 48.2 °F 82% 29.97 in 10.0 mi NW 5.8 mph - N/A   Scattered Clouds
5:14 AM 53.6 °F 48.2 °F 82% 29.97 in 10.0 mi NW 8.1 mph - N/A   Clear
5:35 AM 53.6 °F 48.2 °F 82% 29.97 in 10.0 mi NW 3.5 mph - N/A   Clear
5:55 AM 53.6 °F 48.2 °F 82% 29.98 in 10.0 mi NNW 3.5 mph - N/A   Clear
6:15 AM 51.8 °F 48.2 °F 88% 29.98 in 10.0 mi NW 3.5 mph - N/A   Scattered Clouds
6:35 AM 53.6 °F 48.2 °F 82% 29.98 in 10.0 mi NNW 6.9 mph - N/A   Mostly Cloudy
6:55 AM 53.6 °F 48.2 °F 82% 29.99 in 10.0 mi NNW 4.6 mph - N/A   Overcast
7:15 AM 53.6 °F 48.2 °F 82% 30.00 in 10.0 mi NW 3.5 mph - N/A   Mostly Cloudy
7:35 AM 53.6 °F 48.2 °F 82% 30.00 in 10.0 mi NW 3.5 mph - N/A   Mostly Cloudy
7:55 AM 53.6 °F 48.2 °F 82% 30.01 in 10.0 mi NW 5.8 mph - N/A   Mostly Cloudy
8:15 AM 55.4 °F 48.2 °F 77% 30.00 in 10.0 mi NNW 6.9 mph - N/A   Overcast
8:36 AM 55.4 °F 50.0 °F 82% 30.01 in 10.0 mi NNW 9.2 mph - N/A   Overcast
8:56 AM 55.4 °F 50.0 °F 82% 30.01 in 10.0 mi North 8.1 mph 16.1 mph N/A   Overcast
9:16 AM 55.4 °F 50.0 °F 82% 30.02 in 10.0 mi North 8.1 mph - N/A   Overcast
9:36 AM 57.2 °F 51.8 °F 82% 30.02 in 10.0 mi North 12.7 mph 18.4 mph N/A   Overcast
9:56 AM 57.2 °F 51.8 °F 82% 30.03 in 10.0 mi North 10.4 mph - N/A   Overcast
10:16 AM 57.2 °F 51.8 °F 82% 30.03 in 10.0 mi NNW 8.1 mph - N/A   Overcast
10:36 AM 59.0 °F 51.8 °F 77% 30.03 in 10.0 mi NNW 13.8 mph - N/A   Overcast
10:56 AM 59.0 °F 50.0 °F 72% 30.04 in 10.0 mi North 11.5 mph - N/A   Overcast
11:16 AM 59.0 °F 50.0 °F 72% 30.05 in 10.0 mi NNW 11.5 mph - N/A   Overcast
11:36 AM 59.0 °F 50.0 °F 72% 30.05 in 10.0 mi North 10.4 mph - N/A   Overcast
11:57 AM 59.0 °F 50.0 °F 72% 30.06 in 10.0 mi NNW 11.5 mph 16.1 mph N/A   Overcast
12:12 PM 60.8 °F 48.2 °F 63% 30.06 in 10.0 mi North 11.5 mph 16.1 mph N/A   Overcast
12:32 PM 62.6 °F 50.0 °F 63% 30.06 in 10.0 mi NNW 6.9 mph - N/A   Overcast
12:52 PM 62.6 °F 48.2 °F 59% 30.06 in 10.0 mi North 9.2 mph 18.4 mph N/A   Overcast
1:12 PM 60.8 °F 48.2 °F 63% 30.06 in 10.0 mi NW 5.8 mph - N/A   Overcast
1:32 PM 62.6 °F 48.2 °F 59% 30.05 in 10.0 mi North 13.8 mph 18.4 mph N/A   Mostly Cloudy
1:52 PM 62.6 °F 48.2 °F 59% 30.05 in 10.0 mi North 9.2 mph - N/A   Mostly Cloudy
2:12 PM 62.6 °F 48.2 °F 59% 30.05 in 10.0 mi North 10.4 mph 21.9 mph N/A   Mostly Cloudy
2:32 PM 60.8 °F 46.4 °F 59% 30.05 in 10.0 mi North 10.4 mph 17.3 mph N/A   Overcast
2:52 PM 62.6 °F 48.2 °F 59% 30.05 in 10.0 mi North 8.1 mph - N/A   Overcast
3:13 PM 62.6 °F 48.2 °F 59% 30.05 in 10.0 mi NNW 6.9 mph - N/A   Overcast
3:33 PM 60.8 °F 46.4 °F 59% 30.05 in 10.0 mi North 11.5 mph 23.0 mph N/A   Overcast
3:53 PM 62.6 °F 46.4 °F 55% 30.05 in 10.0 mi NNW 10.4 mph 18.4 mph N/A   Overcast
4:13 PM 62.6 °F 48.2 °F 59% 30.05 in 10.0 mi NNW 11.5 mph 20.7 mph N/A   Mostly Cloudy
4:33 PM 62.6 °F 46.4 °F 55% 30.05 in 10.0 mi North 8.1 mph - N/A   Mostly Cloudy
4:53 PM 62.6 °F 46.4 °F 55% 30.05 in 10.0 mi North 11.5 mph 16.1 mph N/A   Mostly Cloudy
5:13 PM 62.6 °F 46.4 °F 55% 30.05 in 10.0 mi North 12.7 mph 18.4 mph N/A   Mostly Cloudy
5:33 PM 62.6 °F 44.6 °F 52% 30.06 in 10.0 mi North 12.7 mph 20.7 mph N/A   Mostly Cloudy
5:53 PM 60.8 °F 44.6 °F 55% 30.06 in 10.0 mi North 9.2 mph - N/A   Scattered Clouds
6:14 PM 62.6 °F 44.6 °F 52% 30.07 in 10.0 mi North 10.4 mph 17.3 mph N/A   Mostly Cloudy
6:34 PM 60.8 °F 42.8 °F 52% 30.07 in 10.0 mi North 9.2 mph - N/A   Scattered Clouds
6:54 PM 59.0 °F 42.8 °F 55% 30.08 in 10.0 mi NNW 9.2 mph - N/A   Clear
7:14 PM 57.2 °F 42.8 °F 59% 30.08 in 10.0 mi North 8.1 mph - N/A   Clear
7:34 PM 57.2 °F 44.6 °F 63% 30.09 in 10.0 mi North 5.8 mph - N/A   Clear
7:54 PM 53.6 °F 44.6 °F 72% 30.09 in 10.0 mi North 6.9 mph - N/A   Clear
8:14 PM 53.6 °F 44.6 °F 72% 30.10 in 10.0 mi Calm Calm - N/A   Clear
8:34 PM 53.6 °F 44.6 °F 72% 30.10 in 10.0 mi Calm Calm - N/A   Clear
8:54 PM 53.6 °F 44.6 °F 72% 30.11 in 10.0 mi Calm Calm - N/A   Clear
9:14 PM 50.0 °F 44.6 °F 82% 30.12 in 10.0 mi Calm Calm - N/A   Clear
9:35 PM 48.2 °F 46.4 °F 93% 30.12 in 10.0 mi Calm Calm - N/A   Clear
9:55 PM 46.4 °F 44.6 °F 93% 30.13 in 10.0 mi Calm Calm - N/A   Clear
10:15 PM 46.4 °F 44.6 °F 93% 30.13 in 10.0 mi Calm Calm - N/A   Clear
10:35 PM 46.4 °F 44.6 °F 93% 30.13 in 10.0 mi Calm Calm - N/A   Clear
10:55 PM 46.4 °F 44.6 °F 93% 30.13 in 10.0 mi Calm Calm - N/A   Clear
11:15 PM 46.4 °F 44.6 °F 93% 30.13 in 10.0 mi Calm Calm - N/A   Clear
11:35 PM 46.4 °F 44.6 °F 93% 30.13 in 10.0 mi Calm Calm - N/A   Clear
11:55 PM 44.6 °F 42.8 °F 93% 30.13 in 10.0 mi Calm Calm - N/A   Clear